Regional Weather Roundup
Issued by NWS

Home | Current Version | Previous Version | Text Only | Print | Product List | Glossary On
Versions: 1 2 3 4 5 6 7 8 9 10 11 12 13 14 15 16 17 18 19 20 21 22 23 24 25 26 27 28 29 30 31 32 33 34 35 36 37 38 39 40 41 42 43 44 45 46 47 48 49 50
519
ASUS43 KTOP 191859
RWRKS

WEATHER ROUNDUP FOR KANSAS
NATIONAL WEATHER SERVICE GOODLAND KS
100 PM CST FRI JAN 19 2018

NOTE:  "FAIR" INDICATES FEW OR NO CLOUDS BELOW 12,000 FEET WITH NO
SIGNIFICANT WEATHER AND/OR OBSTRUCTIONS TO VISIBILITY.

KSZ001>006-013>018-027>032-041>047-192000-
NORTHWEST KANSAS

CITY           SKY/WX    TMP DP  RH WIND       PRES   REMARKS
GOODLAND       PTSUNNY   69  16  13 SW16G25   29.67F
HILL CITY      CLOUDY    62  19  19 S10       29.68F
RUSSELL        CLOUDY    56  21  25 S22       29.71F
$$

KSZ061>065-074>080-084>089-192000-
SOUTHWEST KANSAS

CITY           SKY/WX    TMP DP  RH WIND       PRES   REMARKS
DODGE CITY     CLOUDY    60  17  18 SW16G29   29.76F
GARDEN CITY    CLOUDY    65  11  12 SW10      29.73F
GREAT BEND     CLOUDY    58  19  22 S13       29.77F
LIBERAL        CLOUDY    61  16  17 S12       29.77F
$$

KSZ066>073-081>083-090>101-192000-
SOUTHEAST KANSAS

CITY           SKY/WX    TMP DP  RH WIND       PRES   REMARKS
CHANUTE        CLOUDY    48  24  39 S20G25    29.92F
COFFEYVILLE    CLOUDY    50  25  37 S17       29.96F
HUTCHINSON     CLOUDY    51  22  31 S18       29.81F
MEDICINE LODGE   N/A     54  20  26 S14       29.82F
NEWTON         CLOUDY    49  21  33 S22       29.83F
PARSONS        CLOUDY    49  26  41 S13G22    29.95F
WICHITA INTL   CLOUDY    53  21  28 S23       29.85F
WICHITA JABRA  CLOUDY    52  21  29 S16G26    29.85F
WINFIELD       CLOUDY    54  22  28 S18G25    29.91F
$$

KSZ007>012-019>026-033>040-048>060-102>105-192000-
NORTHEAST KANSAS

CITY           SKY/WX    TMP DP  RH WIND       PRES   REMARKS
CONCORDIA      CLOUDY    47  27  45 S10       29.74F
EMPORIA        CLOUDY    51  24  34 S15       29.86F
LAWRENCE       CLOUDY    44  26  49 S12       29.88F
MANHATTAN      CLOUDY    50  24  36 S9        29.80F
OLATHE IND     CLOUDY    47  26  44 S14       29.89F
OLATHE EXE     CLOUDY    43  25  49 S14       29.89F
SALINA         CLOUDY    46  26  45 S12       29.79F
TOPEKA BILLARD CLOUDY    43  25  49 S12       29.86F
TOPEKA FORBES  CLOUDY    45  26  47 S10       29.85F
$$




USA.gov is the U.S. government's official web portal to all federal, state and local government web resources and services.